Weather History for Farmington, MO

Change the Weather History Date:

Thursday, December 20, 2012

  Actual Average Record
Temperature  
Mean Temperature 40 °F -  
Max Temperature 53 °F 39 °F 66 °F (2013)
Min Temperature 26 °F 23 °F 0 °F (2000)
Degree Days  
Heating Degree Days 26    
Moisture  
Dew Point 31 °F    
Average Humidity 72    
Maximum Humidity 94    
Minimum Humidity 57    
Precipitation  
Precipitation 0.52 in - - ()
Sea Level Pressure  
Sea Level Pressure 29.62 in    
Wind  
Wind Speed 15 mph (West)    
Max Wind Speed 28 mph    
Max Gust Speed 41 mph    
Visibility 10 miles    
Events Thunderstorm    
Averages and records for this station are not official NWS values.
T = Trace of Precipitation, MM = Missing Value Source: NWS Daily Summary

Daily Weather History Graph

Daily Weather History Graph

Search for Another Location

Airport:

Trip Planner

Search our weather history database for the weather conditions in past years. The results will help you decide how hot, cold, wet, or windy it might be!

Date:

Astronomy

Dec. 20, 2012 Rise Set
Actual Time 7:13 AM CST 4:46 PM CST
Civil Twilight 6:43 AM CST 5:15 PM CST
Nautical Twilight 6:10 AM CST 5:48 PM CST
Astronomical Twilight 5:38 AM CST 6:20 PM CST
Moon 11:59 AM CST (12/20) 12:05 AM CST (12/20)
Length of Visible Light 10h 31m
Length of Day
9h 32m
First Quarter, 55% of the Moon is Illuminated
Dec 20
First Quarter
Dec 28
Full
Jan 4
Last Quarter
Jan 11
New
Jan 18
First Quarter

Hourly Weather History & Observations

Time (CST) Temp. Windchill Dew Point Humidity Pressure Visibility Wind Dir Wind Speed Gust Speed Precip Events Conditions
12:15 AM 53.6 °F - 48.2 °F 82% 29.55 in 10.0 mi SSE 12.7 mph - N/A   Overcast
12:35 AM 53.6 °F - 48.2 °F 82% 29.54 in 10.0 mi SSE 15.0 mph 23.0 mph 0.02 in Thunderstorm Overcast
1:15 AM 51.8 °F - 48.2 °F 88% 29.50 in 10.0 mi South 10.4 mph - 0.01 in Thunderstorm Overcast
1:35 AM 51.8 °F - 48.2 °F 88% 29.50 in 10.0 mi South 9.2 mph - 0.02 in   Overcast
1:55 AM 51.8 °F - 48.2 °F 88% 29.50 in 10.0 mi WNW 8.1 mph - 0.03 in   Overcast
2:15 AM 51.8 °F - 50.0 °F 94% 29.49 in 5.0 mi Calm Calm - 0.14 in Thunderstorm Overcast
2:35 AM 51.8 °F - 50.0 °F 94% 29.49 in 7.0 mi Calm Calm - 0.24 in Thunderstorm Overcast
2:55 AM 51.8 °F - 50.0 °F 94% 29.47 in 5.0 mi South 3.5 mph - 0.37 in Thunderstorm Overcast
3:15 AM 51.8 °F - 50.0 °F 94% 29.45 in 10.0 mi SSE 3.5 mph - 0.06 in   Mostly Cloudy
3:35 AM 51.8 °F - 50.0 °F 94% 29.43 in 10.0 mi SE 6.9 mph - 0.08 in   Overcast
3:55 AM 51.8 °F - 50.0 °F 94% 29.40 in 10.0 mi SSE 11.5 mph - 0.10 in   Overcast
4:15 AM 53.6 °F - 51.8 °F 94% 29.34 in 10.0 mi SSE 13.8 mph 18.4 mph 0.01 in   Scattered Clouds
4:35 AM 53.6 °F - 51.8 °F 94% 29.33 in 10.0 mi South 12.7 mph 19.6 mph 0.01 in   Clear
4:55 AM 53.6 °F - 51.8 °F 94% 29.33 in 10.0 mi South 12.7 mph - 0.01 in   Partly Cloudy
5:15 AM 53.6 °F - 51.8 °F 94% 29.33 in 10.0 mi South 15.0 mph - 0.01 in   Scattered Clouds
5:35 AM 53.6 °F - 51.8 °F 94% 29.32 in 10.0 mi South 13.8 mph - 0.01 in   Mostly Cloudy
5:55 AM 53.6 °F - 51.8 °F 94% 29.34 in 10.0 mi SW 12.7 mph 23.0 mph 0.01 in   Overcast
6:15 AM 53.6 °F - 46.4 °F 77% 29.33 in 10.0 mi SW 15.0 mph 29.9 mph N/A   Mostly Cloudy
6:35 AM 53.6 °F - 44.6 °F 72% 29.32 in 10.0 mi SW 17.3 mph 26.5 mph N/A   Partly Cloudy
6:55 AM 53.6 °F - 42.8 °F 67% 29.34 in 10.0 mi WSW 19.6 mph 28.8 mph N/A   Mostly Cloudy
7:15 AM 51.8 °F - 37.4 °F 58% 29.35 in 10.0 mi WSW 17.3 mph 33.4 mph N/A   Scattered Clouds
7:35 AM 48.2 °F - 37.4 °F 66% 29.36 in 10.0 mi WSW 13.8 mph - N/A   Partly Cloudy
7:55 AM 50.0 °F - 37.4 °F 62% 29.37 in 10.0 mi WSW 25.3 mph 34.5 mph N/A   Mostly Cloudy
8:15 AM 46.4 °F 38.1 °F 33.8 °F 62% 29.40 in 10.0 mi WSW 24.2 mph 41.4 mph N/A   Overcast
8:35 AM 44.6 °F 36.9 °F 33.8 °F 66% 29.41 in 10.0 mi West 18.4 mph 33.4 mph N/A   Mostly Cloudy
8:55 AM 42.8 °F 34.0 °F 30.2 °F 61% 29.42 in 10.0 mi WSW 20.7 mph 32.2 mph N/A   Mostly Cloudy
9:15 AM 42.8 °F 32.9 °F 28.4 °F 57% 29.44 in 10.0 mi WSW 26.5 mph 38.0 mph N/A   Mostly Cloudy
9:35 AM 41.0 °F 32.5 °F 30.2 °F 65% 29.45 in 10.0 mi West 17.3 mph 29.9 mph N/A   Mostly Cloudy
9:55 AM 37.4 °F 30.3 °F 30.2 °F 75% 29.47 in 10.0 mi West 10.4 mph 25.3 mph N/A   Overcast
10:15 AM 37.4 °F 26.6 °F 28.4 °F 70% 29.48 in 10.0 mi WSW 21.9 mph 40.3 mph N/A   Overcast
10:35 AM 37.4 °F 28.5 °F 26.6 °F 65% 29.49 in 10.0 mi West 15.0 mph 28.8 mph N/A   Overcast
10:55 AM 35.6 °F 24.8 °F 26.6 °F 70% 29.50 in 10.0 mi West 19.6 mph 36.8 mph N/A   Overcast
11:15 AM 35.6 °F 24.2 °F 26.6 °F 70% 29.51 in 10.0 mi West 21.9 mph 31.1 mph N/A   Overcast
11:35 AM 35.6 °F 25.2 °F 24.8 °F 65% 29.52 in 10.0 mi West 18.4 mph 40.3 mph N/A   Overcast
11:55 AM 35.6 °F 24.5 °F 24.8 °F 65% 29.53 in 10.0 mi West 20.7 mph 32.2 mph N/A   Overcast
12:15 PM 33.8 °F 21.3 °F 24.8 °F 70% 29.54 in 10.0 mi West 24.2 mph 40.3 mph N/A   Overcast
12:35 PM 33.8 °F 21.6 °F 23.0 °F 65% 29.55 in 10.0 mi WNW 23.0 mph 32.2 mph N/A   Overcast
12:55 PM 33.8 °F 22.5 °F 24.8 °F 70% 29.57 in 9.0 mi West 19.6 mph 36.8 mph N/A   Overcast
1:15 PM 33.8 °F 21.9 °F 24.8 °F 70% 29.59 in 10.0 mi West 21.9 mph 36.8 mph N/A   Overcast
1:35 PM 33.8 °F 21.0 °F 24.8 °F 70% 29.60 in 5.0 mi WNW 25.3 mph 38.0 mph N/A   Overcast
1:55 PM 33.8 °F 22.8 °F 24.8 °F 70% 29.62 in 10.0 mi WNW 18.4 mph 36.8 mph N/A   Overcast
2:15 PM 33.8 °F 22.2 °F 24.8 °F 70% 29.64 in 8.0 mi West 20.7 mph 35.7 mph N/A   Overcast
2:35 PM 33.8 °F 21.9 °F 24.8 °F 70% 29.67 in 7.0 mi West 21.9 mph 32.2 mph N/A   Overcast
2:55 PM 33.8 °F 21.6 °F 23.0 °F 65% 29.68 in 10.0 mi West 23.0 mph 32.2 mph N/A   Overcast
3:15 PM 33.8 °F 22.8 °F 23.0 °F 65% 29.71 in 10.0 mi West 18.4 mph 38.0 mph N/A   Overcast
3:35 PM 32.0 °F 19.8 °F 23.0 °F 69% 29.73 in 10.0 mi WNW 20.7 mph 33.4 mph N/A   Overcast
3:55 PM 30.2 °F 17.1 °F 23.0 °F 75% 29.76 in 9.0 mi West 21.9 mph 31.1 mph N/A   Overcast
4:15 PM 30.2 °F 16.8 °F 21.2 °F 69% 29.78 in 9.0 mi West 23.0 mph 36.8 mph N/A   Overcast
4:35 PM 30.2 °F 15.7 °F 19.4 °F 64% 29.80 in 10.0 mi West 27.6 mph 35.7 mph N/A   Overcast
4:55 PM 30.2 °F 19.3 °F 19.4 °F 64% 29.81 in 10.0 mi West 15.0 mph 34.5 mph N/A   Overcast
5:15 PM 30.2 °F 18.9 °F 19.4 °F 64% 29.83 in 10.0 mi West 16.1 mph 35.7 mph N/A   Overcast
5:35 PM 30.2 °F 19.3 °F 19.4 °F 64% 29.85 in 10.0 mi West 15.0 mph 38.0 mph N/A   Overcast
5:55 PM 30.2 °F 16.2 °F 19.4 °F 64% 29.87 in 10.0 mi West 25.3 mph 33.4 mph N/A   Overcast
6:15 PM 28.4 °F 13.8 °F 19.4 °F 69% 29.87 in 10.0 mi WNW 25.3 mph 29.9 mph N/A   Overcast
6:35 PM 28.4 °F 16.6 °F 19.4 °F 69% 29.89 in 10.0 mi WNW 16.1 mph 33.4 mph N/A   Overcast
6:55 PM 28.4 °F 15.1 °F 19.4 °F 69% 29.89 in 10.0 mi West 20.7 mph 33.4 mph N/A   Overcast
7:15 PM 28.4 °F 14.1 °F 17.6 °F 64% 29.91 in 10.0 mi WNW 24.2 mph 28.8 mph N/A   Overcast
7:35 PM 28.4 °F 15.8 °F 17.6 °F 64% 29.91 in 10.0 mi West 18.4 mph 32.2 mph N/A   Mostly Cloudy
8:15 PM 28.4 °F 15.8 °F 17.6 °F 64% 29.94 in 10.0 mi WNW 18.4 mph 26.5 mph N/A   Scattered Clouds
8:35 PM 28.4 °F 15.4 °F 17.6 °F 64% 29.94 in 10.0 mi West 19.6 mph 29.9 mph N/A   Scattered Clouds
8:55 PM 28.4 °F 15.4 °F 17.6 °F 64% 29.94 in 10.0 mi West 19.6 mph 29.9 mph N/A   Partly Cloudy
9:15 PM 28.4 °F 15.1 °F 17.6 °F 64% 29.94 in 10.0 mi WNW 20.7 mph 31.1 mph N/A   Clear
9:35 PM 28.4 °F 15.1 °F 15.8 °F 59% 29.95 in 10.0 mi WNW 20.7 mph 34.5 mph N/A   Clear
9:55 PM 26.6 °F 13.8 °F 15.8 °F 64% 29.96 in 10.0 mi West 17.3 mph 28.8 mph N/A   Clear
10:15 PM 26.6 °F 14.3 °F 15.8 °F 64% 29.97 in 10.0 mi West 16.1 mph 27.6 mph N/A   Clear
10:35 PM 26.6 °F 15.2 °F 15.8 °F 64% 29.97 in 10.0 mi WNW 13.8 mph 27.6 mph N/A   Clear
10:55 PM 26.6 °F 13.4 °F 15.8 °F 64% 29.99 in 10.0 mi West 18.4 mph 25.3 mph N/A   Clear
11:15 PM 26.6 °F 14.3 °F 15.8 °F 64% 29.99 in 10.0 mi West 16.1 mph 23.0 mph N/A   Clear
11:35 PM 26.6 °F 15.2 °F 15.8 °F 64% 29.99 in 10.0 mi West 13.8 mph 27.6 mph N/A   Clear
11:55 PM 26.6 °F 14.7 °F 15.8 °F 64% 30.00 in 10.0 mi West 15.0 mph 21.9 mph N/A   Clear